Location: ??????
(41.3164°N, 22.6615°E)
Time: 16:41:22
(UTC+00:00)

Cosmos 1300 - Pass Details

Date: 02 June 2022
Orbit: 506 x 508 km, 82.5° (Epoch: 01 July)

Event Time Altitude Azimuth Distance (km) Brightness Sun altitude
Rises 22:37:41 0° 350° (N) 2,619 7.5 -26.4°
Reaches altitude 10° 22:39:49 10° 348° (NNW) 1,728 6.3 -26.3°
Enters shadow 22:42:20 39° 337° (NNW) 770 3.9 -26.3°
